Time,TemperatureF,DewpointF,PressureIn,WindDirection,WindDirectionDegrees,WindSpeedMPH,WindSpeedGustMPH,Humidity,HourlyPrecipIn,Conditions,Clouds,dailyrainin,SoftwareType,DateUTC
2013-03-09 00:00:00,35.8,26.3,30.22,NNW,337,6.0,6.0,68,0.00,,CLR,0.00,VWS V14.00,2013-03-09 05:00:00,
2013-03-09 00:05:00,35.7,26.2,30.22,NNW,331,3.0,5.0,68,0.00,,CLR,0.00,VWS V14.00,2013-03-09 05:05:00,
2013-03-09 00:10:00,35.7,26.2,30.22,NNW,340,5.0,6.0,68,0.00,,CLR,0.00,VWS V14.00,2013-03-09 05:10:00,
2013-03-09 00:15:00,35.6,26.1,30.22,NW,313,4.0,6.0,68,0.00,,CLR,0.00,VWS V14.00,2013-03-09 05:15:00,
2013-03-09 00:20:00,35.5,26.0,30.22,NW,319,0.0,6.0,68,0.00,,CLR,0.00,VWS V14.00,2013-03-09 05:20:00,
2013-03-09 00:25:00,35.4,25.9,30.22,NNW,342,1.0,6.0,68,0.00,,CLR,0.00,VWS V14.00,2013-03-09 05:25:00,
2013-03-09 00:30:00,35.3,25.8,30.22,NNW,345,2.0,7.0,68,0.00,,CLR,0.00,VWS V14.00,2013-03-09 05:30:00,
2013-03-09 00:41:00,35.3,25.8,30.22,NW,311,4.0,4.0,68,0.00,,CLR,0.00,VWS V14.00,2013-03-09 05:41:00,
2013-03-09 00:46:00,35.2,25.7,30.22,NNE,17,2.0,4.0,68,0.00,,CLR,0.00,VWS V14.00,2013-03-09 05:46:00,
2013-03-09 00:51:00,35.1,25.6,30.22,North,349,4.0,4.0,68,0.00,,CLR,0.00,VWS V14.00,2013-03-09 05:51:00,
2013-03-09 00:56:00,35.1,25.6,30.22,NNW,336,2.0,6.0,68,0.00,,CLR,0.00,VWS V14.00,2013-03-09 05:56:00,
2013-03-09 01:01:00,34.9,25.4,30.22,NNW,341,3.0,4.0,68,0.00,,CLR,0.00,VWS V14.00,2013-03-09 06:01:00,
2013-03-09 01:06:00,34.8,25.3,30.22,NW,319,2.0,4.0,68,0.00,,CLR,0.00,VWS V14.00,2013-03-09 06:06:00,
2013-03-09 01:11:00,34.7,25.2,30.22,NW,304,1.0,1.0,68,0.00,,CLR,0.00,VWS V14.00,2013-03-09 06:11:00,
2013-03-09 01:16:00,34.6,25.1,30.22,WNW,294,0.0,1.0,68,0.00,,CLR,0.00,VWS V14.00,2013-03-09 06:16:00,
2013-03-09 01:21:00,34.5,25.0,30.22,North,360,0.0,3.0,68,0.00,,CLR,0.00,VWS V14.00,2013-03-09 06:21:00,
2013-03-09 01:26:00,34.4,25.3,30.22,NW,326,0.0,2.0,69,0.00,,CLR,0.00,VWS V14.00,2013-03-09 06:26:00,
2013-03-09 01:31:00,34.4,25.3,30.22,WNW,296,0.0,2.0,69,0.00,,CLR,0.00,VWS V14.00,2013-03-09 06:31:00,
2013-03-09 01:36:00,34.4,25.3,30.22,NW,319,0.0,1.0,69,0.00,,CLR,0.00,VWS V14.00,2013-03-09 06:36:00,
2013-03-09 01:41:00,34.3,25.2,30.22,NW,308,0.0,1.0,69,0.00,,CLR,0.00,VWS V14.00,2013-03-09 06:41:00,
2013-03-09 01:46:00,34.1,25.0,30.22,NNW,336,2.0,4.0,69,0.00,,CLR,0.00,VWS V14.00,2013-03-09 06:46:00,
2013-03-09 01:51:00,34.0,24.9,30.22,NNW,336,2.0,3.0,69,0.00,,CLR,0.00,VWS V14.00,2013-03-09 06:51:00,
2013-03-09 01:56:00,33.9,25.2,30.22,NW,326,3.0,4.0,70,0.00,,CLR,0.00,VWS V14.00,2013-03-09 06:56:00,
2013-03-09 02:01:00,33.9,25.2,30.22,WNW,300,4.0,4.0,70,0.00,,CLR,0.00,VWS V14.00,2013-03-09 07:01:00,
2013-03-09 02:06:00,33.8,25.1,30.22,NNW,345,3.0,4.0,70,0.00,,CLR,0.00,VWS V14.00,2013-03-09 07:06:00,
2013-03-09 02:11:00,33.7,25.0,30.22,NW,319,3.0,4.0,70,0.00,,CLR,0.00,VWS V14.00,2013-03-09 07:11:00,
2013-03-09 02:16:00,33.6,24.9,30.21,NW,317,1.0,3.0,70,0.00,,CLR,0.00,VWS V14.00,2013-03-09 07:16:00,
2013-03-09 02:21:00,33.6,24.9,30.21,NW,317,1.0,4.0,70,0.00,,CLR,0.00,VWS V14.00,2013-03-09 07:21:00,
2013-03-09 02:26:00,33.7,25.0,30.21,NW,315,0.0,2.0,70,0.00,,CLR,0.00,VWS V14.00,2013-03-09 07:26:00,
2013-03-09 02:31:00,33.5,24.8,30.20,NNW,332,1.0,3.0,70,0.00,,CLR,0.00,VWS V14.00,2013-03-09 07:31:00,
2013-03-09 02:36:00,33.4,24.7,30.20,NW,313,2.0,5.0,70,0.00,,CLR,0.00,VWS V14.00,2013-03-09 07:36:00,
2013-03-09 02:41:00,33.3,24.6,30.20,NW,319,2.0,3.0,70,0.00,,CLR,0.00,VWS V14.00,2013-03-09 07:41:00,
2013-03-09 02:46:00,33.3,24.9,30.20,NW,325,3.0,4.0,71,0.00,,CLR,0.00,VWS V14.00,2013-03-09 07:46:00,
2013-03-09 02:51:00,33.5,24.8,30.20,WNW,286,5.0,5.0,70,0.00,,CLR,0.00,VWS V14.00,2013-03-09 07:51:00,
2013-03-09 02:56:00,33.5,24.8,30.20,NW,310,3.0,4.0,70,0.00,,CLR,0.00,VWS V14.00,2013-03-09 07:56:00,
2013-03-09 03:01:00,33.5,24.4,30.20,NW,323,3.0,4.0,69,0.00,,CLR,0.00,VWS V14.00,2013-03-09 08:01:00,
2013-03-09 03:06:00,33.6,24.5,30.20,NNW,331,5.0,5.0,69,0.00,,CLR,0.00,VWS V14.00,2013-03-09 08:06:00,
2013-03-09 03:11:00,33.7,24.6,30.20,NW,317,4.0,5.0,69,0.00,,CLR,0.00,VWS V14.00,2013-03-09 08:11:00,
2013-03-09 03:16:00,33.6,24.5,30.20,North,355,3.0,4.0,69,0.00,,CLR,0.00,VWS V14.00,2013-03-09 08:16:00,
2013-03-09 03:21:00,33.4,24.3,30.20,NW,326,1.0,2.0,69,0.00,,CLR,0.00,VWS V14.00,2013-03-09 08:21:00,
2013-03-09 03:26:00,33.2,24.5,30.20,North,355,2.0,4.0,70,0.00,,CLR,0.00,VWS V14.00,2013-03-09 08:26:00,
2013-03-09 03:31:00,33.1,24.4,30.20,NW,321,2.0,5.0,70,0.00,,CLR,0.00,VWS V14.00,2013-03-09 08:31:00,
2013-03-09 03:36:00,33.0,24.3,30.20,North,355,2.0,3.0,70,0.00,,CLR,0.00,VWS V14.00,2013-03-09 08:36:00,
2013-03-09 03:41:00,33.0,24.3,30.20,NNW,333,2.0,4.0,70,0.00,,CLR,0.00,VWS V14.00,2013-03-09 08:41:00,
2013-03-09 03:46:00,33.0,24.3,30.20,North,355,2.0,4.0,70,0.00,,CLR,0.00,VWS V14.00,2013-03-09 08:46:00,
2013-03-09 03:51:00,33.0,24.3,30.20,WNW,285,4.0,4.0,70,0.00,,CLR,0.00,VWS V14.00,2013-03-09 08:51:00,
2013-03-09 03:56:00,33.1,24.4,30.20,North,355,4.0,9.0,70,0.00,,CLR,0.00,VWS V14.00,2013-03-09 08:56:00,
2013-03-09 04:01:00,33.2,24.1,30.21,NW,311,1.0,1.0,69,0.00,,CLR,0.00,VWS V14.00,2013-03-09 09:01:00,
2013-03-09 04:06:00,33.2,24.5,30.21,North,349,0.0,3.0,70,0.00,,CLR,0.00,VWS V14.00,2013-03-09 09:06:00,
2013-03-09 04:11:00,33.1,24.0,30.21,NW,310,1.0,2.0,69,0.00,,CLR,0.00,VWS V14.00,2013-03-09 09:11:00,
2013-03-09 04:16:00,33.0,24.0,30.22,NNW,327,2.0,2.0,69,0.00,,CLR,0.00,VWS V14.00,2013-03-09 09:16:00,
2013-03-09 04:21:00,33.0,24.0,30.22,North,355,1.0,2.0,69,0.00,,CLR,0.00,VWS V14.00,2013-03-09 09:21:00,
2013-03-09 04:26:00,32.9,23.9,30.22,North,355,1.0,2.0,69,0.00,,CLR,0.00,VWS V14.00,2013-03-09 09:26:00,
2013-03-09 04:31:00,32.8,24.1,30.22,North,355,0.0,0.0,70,0.00,,CLR,0.00,VWS V14.00,2013-03-09 09:31:00,
2013-03-09 04:36:00,32.6,23.9,30.22,North,355,0.0,0.0,70,0.00,,CLR,0.00,VWS V14.00,2013-03-09 09:36:00,
2013-03-09 04:41:00,32.3,23.6,30.22,North,355,0.0,0.0,70,0.00,,CLR,0.00,VWS V14.00,2013-03-09 09:41:00,
2013-03-09 04:46:00,31.9,23.6,30.23,WNW,296,0.0,0.0,71,0.00,,CLR,0.00,VWS V14.00,2013-03-09 09:46:00,
2013-03-09 04:51:00,31.5,23.2,30.23,WNW,296,0.0,0.0,71,0.00,,CLR,0.00,VWS V14.00,2013-03-09 09:51:00,
2013-03-09 04:56:00,31.1,23.1,30.23,WNW,296,0.0,0.0,72,0.00,,CLR,0.00,VWS V14.00,2013-03-09 09:56:00,
2013-03-09 05:06:00,30.6,23.0,30.23,WNW,292,0.0,1.0,73,0.00,,CLR,0.00,VWS V14.00,2013-03-09 10:06:00,
2013-03-09 05:11:00,30.3,23.0,30.23,WNW,296,0.0,1.0,74,0.00,,CLR,0.00,VWS V14.00,2013-03-09 10:11:00,
2013-03-09 05:16:00,30.0,22.7,30.24,WNW,296,0.0,0.0,74,0.00,,CLR,0.00,VWS V14.00,2013-03-09 10:16:00,
2013-03-09 05:21:00,29.8,22.9,30.24,WNW,296,0.0,0.0,75,0.00,,CLR,0.00,VWS V14.00,2013-03-09 10:21:00,
2013-03-09 05:26:00,29.6,22.7,30.24,WNW,296,0.0,2.0,75,0.00,,CLR,0.00,VWS V14.00,2013-03-09 10:26:00,
2013-03-09 05:31:00,29.5,22.6,30.24,WNW,296,0.0,0.0,75,0.00,,CLR,0.00,VWS V14.00,2013-03-09 10:31:00,
2013-03-09 05:36:00,29.3,22.7,30.24,WNW,296,0.0,0.0,76,0.00,,CLR,0.00,VWS V14.00,2013-03-09 10:36:00,
2013-03-09 05:41:00,29.2,22.6,30.24,WNW,296,0.0,0.0,76,0.00,,CLR,0.00,VWS V14.00,2013-03-09 10:41:00,
2013-03-09 05:46:00,29.0,22.4,30.25,WNW,296,0.0,0.0,76,0.00,,CLR,0.00,VWS V14.00,2013-03-09 10:46:00,
2013-03-09 05:51:00,28.9,22.6,30.25,WNW,296,0.0,0.0,77,0.00,,CLR,0.00,VWS V14.00,2013-03-09 10:51:00,
2013-03-09 05:56:00,28.9,22.6,30.25,WNW,296,0.0,0.0,77,0.00,,CLR,0.00,VWS V14.00,2013-03-09 10:56:00,
2013-03-09 06:01:00,28.8,22.5,30.25,WNW,296,0.0,0.0,77,0.00,,CLR,0.00,VWS V14.00,2013-03-09 11:01:00,
2013-03-09 06:06:00,28.9,22.6,30.25,WNW,296,0.0,0.0,77,0.00,,CLR,0.00,VWS V14.00,2013-03-09 11:06:00,
2013-03-09 06:11:00,28.9,22.9,30.25,WNW,296,0.0,0.0,78,0.00,,CLR,0.00,VWS V14.00,2013-03-09 11:11:00,
2013-03-09 06:16:00,29.0,23.0,30.25,WNW,296,0.0,0.0,78,0.00,,CLR,0.00,VWS V14.00,2013-03-09 11:16:00,
2013-03-09 06:21:00,29.0,23.0,30.25,WNW,296,0.0,0.0,78,0.00,,CLR,0.00,VWS V14.00,2013-03-09 11:21:00,
2013-03-09 06:26:00,29.1,23.1,30.25,NW,318,0.0,1.0,78,0.00,,CLR,0.00,VWS V14.00,2013-03-09 11:26:00,
2013-03-09 06:31:00,29.3,23.0,30.26,NW,323,0.0,0.0,77,0.00,,CLR,0.00,VWS V14.00,2013-03-09 11:31:00,
2013-03-09 06:36:00,29.4,23.1,30.26,NNW,327,0.0,0.0,77,0.00,,CLR,0.00,VWS V14.00,2013-03-09 11:36:00,
2013-03-09 06:41:00,29.5,23.2,30.26,NNW,327,0.0,0.0,77,0.00,,CLR,0.00,VWS V14.00,2013-03-09 11:41:00,
2013-03-09 06:46:00,29.8,23.5,30.26,NW,322,0.0,0.0,77,0.00,,CLR,0.00,VWS V14.00,2013-03-09 11:46:00,
2013-03-09 06:51:00,30.0,23.7,30.26,NW,322,0.0,1.0,77,0.00,,CLR,0.00,VWS V14.00,2013-03-09 11:51:00,
2013-03-09 06:56:00,30.3,24.0,30.26,NW,306,3.0,3.0,77,0.00,,CLR,0.00,VWS V14.00,2013-03-09 11:56:00,
2013-03-09 07:01:00,30.7,24.0,30.26,NNW,336,0.0,0.0,76,0.00,,CLR,0.00,VWS V14.00,2013-03-09 12:01:00,
2013-03-09 07:06:00,31.1,24.4,30.26,North,360,0.0,0.0,76,0.00,,CLR,0.00,VWS V14.00,2013-03-09 12:06:00,
2013-03-09 07:11:00,31.6,24.6,30.26,North,5,0.0,1.0,75,0.00,,CLR,0.00,VWS V14.00,2013-03-09 12:11:00,
2013-03-09 07:16:00,32.0,24.7,30.26,NW,322,3.0,4.0,74,0.00,,CLR,0.00,VWS V14.00,2013-03-09 12:16:00,
2013-03-09 07:21:00,32.5,24.8,30.26,NW,326,2.0,4.0,73,0.00,,CLR,0.00,VWS V14.00,2013-03-09 12:21:00,
2013-03-09 07:26:00,33.0,25.0,30.26,NNW,331,1.0,3.0,72,0.00,,CLR,0.00,VWS V14.00,2013-03-09 12:26:00,
2013-03-09 07:31:00,33.6,24.9,30.26,NW,319,0.0,2.0,70,0.00,,CLR,0.00,VWS V14.00,2013-03-09 12:31:00,
2013-03-09 07:36:00,34.3,25.2,30.26,North,360,2.0,5.0,69,0.00,,CLR,0.00,VWS V14.00,2013-03-09 12:36:00,
2013-03-09 07:41:00,34.6,25.1,30.26,WNW,292,1.0,4.0,68,0.00,,CLR,0.00,VWS V14.00,2013-03-09 12:41:00,
2013-03-09 07:46:00,35.0,25.2,30.26,NNW,341,1.0,1.0,67,0.00,,CLR,0.00,VWS V14.00,2013-03-09 12:46:00,
2013-03-09 07:51:00,35.3,25.5,30.26,NNW,337,1.0,2.0,67,0.00,,CLR,0.00,VWS V14.00,2013-03-09 12:51:00,
2013-03-09 07:56:00,35.6,25.7,30.26,NW,311,1.0,2.0,67,0.00,,CLR,0.00,VWS V14.00,2013-03-09 12:56:00,
2013-03-09 08:01:00,36.0,25.8,30.27,NW,317,3.0,7.0,66,0.00,,CLR,0.00,VWS V14.00,2013-03-09 13:01:00,
2013-03-09 08:06:00,36.4,25.8,30.27,NW,321,9.0,9.0,65,0.00,,CLR,0.00,VWS V14.00,2013-03-09 13:06:00,
2013-03-09 08:11:00,36.8,25.8,30.27,NW,321,2.0,5.0,64,0.00,,CLR,0.00,VWS V14.00,2013-03-09 13:11:00,
2013-03-09 08:16:00,37.2,25.8,30.28,North,355,7.0,7.0,63,0.00,,CLR,0.00,VWS V14.00,2013-03-09 13:16:00,
2013-03-09 08:21:00,37.8,26.0,30.28,NW,312,2.0,2.0,62,0.00,,CLR,0.00,VWS V14.00,2013-03-09 13:21:00,
2013-03-09 08:26:00,38.1,25.9,30.28,NW,326,3.0,6.0,61,0.00,,CLR,0.00,VWS V14.00,2013-03-09 13:26:00,
2013-03-09 08:31:00,38.3,26.0,30.28,North,360,1.0,4.0,61,0.00,,CLR,0.00,VWS V14.00,2013-03-09 13:31:00,
2013-03-09 08:36:00,38.8,26.5,30.28,WNW,296,3.0,5.0,61,0.00,,CLR,0.00,VWS V14.00,2013-03-09 13:36:00,
2013-03-09 08:41:00,39.1,26.4,30.28,WNW,284,4.0,6.0,60,0.00,,CLR,0.00,VWS V14.00,2013-03-09 13:41:00,
2013-03-09 08:46:00,39.3,26.2,30.27,NNE,16,7.0,7.0,59,0.00,,CLR,0.00,VWS V14.00,2013-03-09 13:46:00,
2013-03-09 08:51:00,39.5,26.8,30.27,North,349,4.0,6.0,60,0.00,,CLR,0.00,VWS V14.00,2013-03-09 13:51:00,
2013-03-09 08:56:00,39.6,26.5,30.27,NNW,337,4.0,5.0,59,0.00,,CLR,0.00,VWS V14.00,2013-03-09 13:56:00,
2013-03-09 09:01:00,40.0,27.2,30.28,NNE,20,2.0,7.0,60,0.00,,CLR,0.00,VWS V14.00,2013-03-09 14:01:00,
2013-03-09 09:06:00,40.3,27.1,30.28,NW,319,2.0,4.0,59,0.00,,CLR,0.00,VWS V14.00,2013-03-09 14:06:00,
2013-03-09 09:11:00,40.8,27.6,30.28,West,277,6.0,6.0,59,0.00,,CLR,0.00,VWS V14.00,2013-03-09 14:11:00,
2013-03-09 09:16:00,41.1,27.0,30.28,NNE,13,2.0,2.0,57,0.00,,CLR,0.00,VWS V14.00,2013-03-09 14:16:00,
2013-03-09 09:21:00,41.3,27.6,30.28,West,281,2.0,4.0,58,0.00,,CLR,0.00,VWS V14.00,2013-03-09 14:21:00,
2013-03-09 09:26:00,41.7,28.0,30.28,NNW,329,2.0,3.0,58,0.00,,CLR,0.00,VWS V14.00,2013-03-09 14:26:00,
2013-03-09 09:31:00,42.1,27.5,30.28,NW,326,3.0,5.0,56,0.00,,CLR,0.00,VWS V14.00,2013-03-09 14:31:00,
2013-03-09 09:36:00,42.4,28.7,30.28,WNW,294,5.0,7.0,58,0.00,,CLR,0.00,VWS V14.00,2013-03-09 14:36:00,
2013-03-09 09:41:00,42.9,28.7,30.28,NNW,338,3.0,6.0,57,0.00,,CLR,0.00,VWS V14.00,2013-03-09 14:41:00,
2013-03-09 09:46:00,43.2,28.6,30.28,North,360,7.0,7.0,56,0.00,,CLR,0.00,VWS V14.00,2013-03-09 14:46:00,
2013-03-09 09:51:00,43.6,29.4,30.28,NNW,342,0.0,1.0,57,0.00,,CLR,0.00,VWS V14.00,2013-03-09 14:51:00,
2013-03-09 09:56:00,44.3,29.2,30.28,WSW,258,4.0,5.0,55,0.00,,CLR,0.00,VWS V14.00,2013-03-09 14:56:00,
2013-03-09 10:01:00,45.0,28.9,30.28,NW,315,4.0,7.0,53,0.00,,CLR,0.00,VWS V14.00,2013-03-09 15:01:00,
2013-03-09 10:06:00,45.5,29.4,30.28,NW,323,3.0,4.0,53,0.00,,CLR,0.00,VWS V14.00,2013-03-09 15:06:00,
2013-03-09 10:11:00,46.0,28.9,30.28,NW,318,5.0,7.0,51,0.00,,CLR,0.00,VWS V14.00,2013-03-09 15:11:00,
2013-03-09 10:16:00,46.2,29.6,30.28,NW,310,2.0,5.0,52,0.00,,CLR,0.00,VWS V14.00,2013-03-09 15:16:00,
2013-03-09 10:21:00,46.5,29.8,30.28,North,5,6.0,8.0,52,0.00,,CLR,0.00,VWS V14.00,2013-03-09 15:21:00,
2013-03-09 10:26:00,46.7,28.6,30.28,North,5,2.0,5.0,49,0.00,,CLR,0.00,VWS V14.00,2013-03-09 15:26:00,
2013-03-09 10:31:00,47.1,28.9,30.28,NW,322,0.0,3.0,49,0.00,,CLR,0.00,VWS V14.00,2013-03-09 15:31:00,
2013-03-09 10:36:00,47.7,29.5,30.28,NW,316,4.0,4.0,49,0.00,,CLR,0.00,VWS V14.00,2013-03-09 15:36:00,
2013-03-09 10:41:00,47.9,29.7,30.28,NNW,327,3.0,3.0,49,0.00,,CLR,0.00,VWS V14.00,2013-03-09 15:41:00,
2013-03-09 10:46:00,48.2,29.5,30.28,North,5,8.0,10.0,48,0.00,,CLR,0.00,VWS V14.00,2013-03-09 15:46:00,
2013-03-09 10:51:00,48.4,29.1,30.28,North,360,6.0,7.0,47,0.00,,CLR,0.00,VWS V14.00,2013-03-09 15:51:00,
2013-03-09 10:56:00,48.7,29.9,30.28,NNW,334,1.0,1.0,48,0.00,,CLR,0.00,VWS V14.00,2013-03-09 15:56:00,
2013-03-09 11:06:00,48.8,29.5,30.27,NW,315,4.0,10.0,47,0.00,,CLR,0.00,VWS V14.00,2013-03-09 16:06:00,
2013-03-09 11:11:00,49.6,29.7,30.27,NW,323,4.0,8.0,46,0.00,,CLR,0.00,VWS V14.00,2013-03-09 16:11:00,
2013-03-09 11:16:00,49.9,30.5,30.27,NW,315,6.0,6.0,47,0.00,,CLR,0.00,VWS V14.00,2013-03-09 16:16:00,
2013-03-09 11:21:00,50.1,30.7,30.27,WNW,294,6.0,9.0,47,0.00,,CLR,0.00,VWS V14.00,2013-03-09 16:21:00,
2013-03-09 11:26:00,50.7,29.0,30.27,North,355,5.0,5.0,43,0.00,,CLR,0.00,VWS V14.00,2013-03-09 16:26:00,
2013-03-09 11:31:00,51.0,29.3,30.28,NNE,16,1.0,3.0,43,0.00,,CLR,0.00,VWS V14.00,2013-03-09 16:31:00,
2013-03-09 11:36:00,51.5,30.3,30.28,West,270,4.0,6.0,44,0.00,,CLR,0.00,VWS V14.00,2013-03-09 16:36:00,
2013-03-09 11:41:00,51.8,30.0,30.28,North,360,1.0,2.0,43,0.00,,CLR,0.00,VWS V14.00,2013-03-09 16:41:00,
2013-03-09 11:46:00,52.2,30.4,30.27,NNE,22,7.0,7.0,43,0.00,,CLR,0.00,VWS V14.00,2013-03-09 16:46:00,
2013-03-09 11:51:00,52.5,29.5,30.27,NNE,15,5.0,6.0,41,0.00,,CLR,0.00,VWS V14.00,2013-03-09 16:51:00,
2013-03-09 11:56:00,53.0,30.0,30.27,NNW,348,5.0,7.0,41,0.00,,CLR,0.00,VWS V14.00,2013-03-09 16:56:00,
2013-03-09 12:01:00,53.4,29.7,30.26,NNW,344,0.0,1.0,40,0.00,,CLR,0.00,VWS V14.00,2013-03-09 17:01:00,
2013-03-09 12:06:00,53.9,30.1,30.26,ENE,76,3.0,6.0,40,0.00,,CLR,0.00,VWS V14.00,2013-03-09 17:06:00,
2013-03-09 12:11:00,54.2,29.8,30.26,NNW,336,2.0,3.0,39,0.00,,CLR,0.00,VWS V14.00,2013-03-09 17:11:00,
2013-03-09 12:16:00,54.6,27.5,30.25,NW,325,2.0,10.0,35,0.00,,CLR,0.00,VWS V14.00,2013-03-09 17:16:00,
2013-03-09 12:21:00,54.6,28.2,30.25,North,349,4.0,6.0,36,0.00,,CLR,0.00,VWS V14.00,2013-03-09 17:21:00,
2013-03-09 12:26:00,54.7,29.0,30.25,NNW,340,6.0,11.0,37,0.00,,CLR,0.00,VWS V14.00,2013-03-09 17:26:00,
2013-03-09 12:31:00,55.1,28.6,30.24,North,360,1.0,5.0,36,0.00,,CLR,0.00,VWS V14.00,2013-03-09 17:31:00,
2013-03-09 12:36:00,55.6,28.4,30.24,NW,308,2.0,5.0,35,0.00,,CLR,0.00,VWS V14.00,2013-03-09 17:36:00,
2013-03-09 12:41:00,55.8,29.3,30.24,NE,38,0.0,1.0,36,0.00,,CLR,0.00,VWS V14.00,2013-03-09 17:41:00,
2013-03-09 12:46:00,55.9,27.2,30.23,NNE,25,0.0,1.0,33,0.00,,CLR,0.00,VWS V14.00,2013-03-09 17:46:00,
2013-03-09 12:51:00,55.8,29.3,30.23,NNE,33,0.0,3.0,36,0.00,,CLR,0.00,VWS V14.00,2013-03-09 17:51:00,
2013-03-09 12:56:00,56.1,29.5,30.23,NNW,348,5.0,7.0,36,0.00,,CLR,0.00,VWS V14.00,2013-03-09 17:56:00,
2013-03-09 13:01:00,56.5,26.2,30.23,NNE,28,7.0,8.0,31,0.00,,CLR,0.00,VWS V14.00,2013-03-09 18:01:00,
2013-03-09 13:06:00,56.5,27.0,30.23,NNE,30,2.0,4.0,32,0.00,,CLR,0.00,VWS V14.00,2013-03-09 18:06:00,
2013-03-09 13:11:00,56.8,26.5,30.23,ESE,105,0.0,3.0,31,0.00,,CLR,0.00,VWS V14.00,2013-03-09 18:11:00,
2013-03-09 13:16:00,57.1,27.5,30.22,NNW,348,2.0,3.0,32,0.00,,CLR,0.00,VWS V14.00,2013-03-09 18:16:00,
2013-03-09 13:21:00,57.3,27.0,30.22,NNW,346,6.0,6.0,31,0.00,,CLR,0.00,VWS V14.00,2013-03-09 18:21:00,
2013-03-09 13:26:00,57.6,26.4,30.22,North,5,0.0,4.0,30,0.00,,CLR,0.00,VWS V14.00,2013-03-09 18:26:00,
2013-03-09 13:31:00,57.6,28.0,30.21,NNE,31,1.0,3.0,32,0.00,,CLR,0.00,VWS V14.00,2013-03-09 18:31:00,
2013-03-09 13:36:00,57.9,28.2,30.21,NE,44,1.0,5.0,32,0.00,,CLR,0.00,VWS V14.00,2013-03-09 18:36:00,
2013-03-09 13:41:00,58.1,26.0,30.21,North,10,0.0,5.0,29,0.00,,CLR,0.00,VWS V14.00,2013-03-09 18:41:00,
2013-03-09 13:46:00,58.0,27.6,30.21,NNW,327,1.0,3.0,31,0.00,,CLR,0.00,VWS V14.00,2013-03-09 18:46:00,
2013-03-09 13:51:00,58.1,26.0,30.21,NNE,29,1.0,1.0,29,0.00,,CLR,0.00,VWS V14.00,2013-03-09 18:51:00,
2013-03-09 13:56:00,58.6,30.3,30.21,NE,34,1.0,2.0,34,0.00,,CLR,0.00,VWS V14.00,2013-03-09 18:56:00,
2013-03-09 14:01:00,58.7,28.2,30.20,WSW,252,2.0,2.0,31,0.00,,CLR,0.00,VWS V14.00,2013-03-09 19:01:00,
2013-03-09 14:06:00,59.0,26.0,30.20,North,360,0.0,6.0,28,0.00,,CLR,0.00,VWS V14.00,2013-03-09 19:06:00,
2013-03-09 14:11:00,59.0,26.0,30.20,North,5,3.0,7.0,28,0.00,,CLR,0.00,VWS V14.00,2013-03-09 19:11:00,
2013-03-09 14:16:00,59.1,24.3,30.20,NNW,341,4.0,7.0,26,0.00,,CLR,0.00,VWS V14.00,2013-03-09 19:16:00,
2013-03-09 14:21:00,59.0,24.2,30.20,NNE,22,3.0,7.0,26,0.00,,CLR,0.00,VWS V14.00,2013-03-09 19:21:00,
2013-03-09 14:26:00,59.2,26.1,30.20,NNE,20,0.0,1.0,28,0.00,,CLR,0.00,VWS V14.00,2013-03-09 19:26:00,
2013-03-09 14:31:00,59.5,29.6,30.21,NNE,21,1.0,2.0,32,0.00,,CLR,0.00,VWS V14.00,2013-03-09 19:31:00,
2013-03-09 14:36:00,59.7,25.7,30.21,North,360,6.0,6.0,27,0.00,,CLR,0.00,VWS V14.00,2013-03-09 19:36:00,
2013-03-09 14:41:00,60.1,26.0,30.21,NNW,330,2.0,6.0,27,0.00,,CLR,0.00,VWS V14.00,2013-03-09 19:41:00,
2013-03-09 14:46:00,60.3,27.1,30.21,ESE,111,2.0,5.0,28,0.00,,CLR,0.00,VWS V14.00,2013-03-09 19:46:00,
2013-03-09 14:51:00,60.0,26.0,30.21,ESE,105,3.0,4.0,27,0.00,,CLR,0.00,VWS V14.00,2013-03-09 19:51:00,
2013-03-09 14:56:00,59.6,24.7,30.21,ENE,68,0.0,3.0,26,0.00,,CLR,0.00,VWS V14.00,2013-03-09 19:56:00,
2013-03-09 15:05:00,59.6,25.6,30.21,North,0,2.0,7.0,27,0.00,,CLR,0.00,VWS V14.00,2013-03-09 20:05:00,
2013-03-09 15:10:00,60.2,24.3,30.21,NNE,31,2.0,3.0,25,0.00,,CLR,0.00,VWS V14.00,2013-03-09 20:10:00,
2013-03-09 15:15:00,60.6,24.6,30.21,NNE,32,2.0,3.0,25,0.00,,CLR,0.00,VWS V14.00,2013-03-09 20:15:00,
2013-03-09 15:20:00,60.3,24.4,30.21,NNE,13,2.0,4.0,25,0.00,,CLR,0.00,VWS V14.00,2013-03-09 20:20:00,
2013-03-09 15:25:00,60.0,26.8,30.21,East,94,0.0,1.0,28,0.00,,CLR,0.00,VWS V14.00,2013-03-09 20:25:00,
2013-03-09 15:30:00,59.7,27.4,30.21,ESE,106,2.0,2.0,29,0.00,,CLR,0.00,VWS V14.00,2013-03-09 20:30:00,
2013-03-09 15:35:00,59.5,26.4,30.21,North,10,0.0,1.0,28,0.00,,CLR,0.00,VWS V14.00,2013-03-09 20:35:00,
2013-03-09 15:40:00,59.6,24.7,30.21,East,89,0.0,1.0,26,0.00,,CLR,0.00,VWS V14.00,2013-03-09 20:40:00,
2013-03-09 15:45:00,59.3,26.2,30.21,East,84,0.0,0.0,28,0.00,,CLR,0.00,VWS V14.00,2013-03-09 20:45:00,
2013-03-09 15:50:00,59.0,25.1,30.21,East,96,0.0,0.0,27,0.00,,CLR,0.00,VWS V14.00,2013-03-09 20:50:00,
2013-03-09 15:55:00,59.0,26.0,30.21,NE,51,0.0,0.0,28,0.00,,CLR,0.00,VWS V14.00,2013-03-09 20:55:00,
2013-03-09 16:00:00,59.0,26.8,30.21,NNE,28,0.0,1.0,29,0.00,,CLR,0.00,VWS V14.00,2013-03-09 21:00:00,
2013-03-09 16:05:00,58.9,25.9,30.21,NE,42,4.0,4.0,28,0.00,,CLR,0.00,VWS V14.00,2013-03-09 21:05:00,
2013-03-09 16:10:00,58.8,26.6,30.21,NNE,19,0.0,0.0,29,0.00,,CLR,0.00,VWS V14.00,2013-03-09 21:10:00,
2013-03-09 16:16:00,58.7,24.8,30.22,NE,38,2.0,2.0,27,0.00,,CLR,0.00,VWS V14.00,2013-03-09 21:16:00,
2013-03-09 16:21:00,58.7,24.8,30.22,NNE,19,0.0,1.0,27,0.00,,CLR,0.00,VWS V14.00,2013-03-09 21:21:00,
2013-03-09 16:26:00,58.8,24.9,30.22,North,360,0.0,2.0,27,0.00,,CLR,0.00,VWS V14.00,2013-03-09 21:26:00,
2013-03-09 16:31:00,58.7,25.7,30.22,ENE,74,4.0,4.0,28,0.00,,CLR,0.00,VWS V14.00,2013-03-09 21:31:00,
2013-03-09 16:36:00,58.6,26.5,30.22,NNE,15,0.0,0.0,29,0.00,,CLR,0.00,VWS V14.00,2013-03-09 21:36:00,
2013-03-09 16:41:00,58.3,25.4,30.22,ESE,107,2.0,3.0,28,0.00,,CLR,0.00,VWS V14.00,2013-03-09 21:41:00,
2013-03-09 16:46:00,58.1,26.9,30.23,NE,44,2.0,2.0,30,0.00,,CLR,0.00,VWS V14.00,2013-03-09 21:46:00,
2013-03-09 16:51:00,57.9,24.1,30.23,NNW,345,5.0,5.0,27,0.00,,CLR,0.00,VWS V14.00,2013-03-09 21:51:00,
2013-03-09 16:56:00,57.8,27.4,30.23,North,355,0.0,2.0,31,0.00,,CLR,0.00,VWS V14.00,2013-03-09 21:56:00,
2013-03-09 17:01:00,57.6,23.9,30.23,NE,45,2.0,2.0,27,0.00,,CLR,0.00,VWS V14.00,2013-03-09 22:01:00,
2013-03-09 17:06:00,57.3,23.6,30.23,North,5,0.0,1.0,27,0.00,,CLR,0.00,VWS V14.00,2013-03-09 22:06:00,
2013-03-09 17:11:00,57.1,23.5,30.23,NNE,25,2.0,2.0,27,0.00,,CLR,0.00,VWS V14.00,2013-03-09 22:11:00,
2013-03-09 17:16:00,56.9,25.0,30.23,NNE,20,0.0,0.0,29,0.00,,CLR,0.00,VWS V14.00,2013-03-09 22:16:00,
2013-03-09 17:21:00,56.7,24.0,30.23,NNE,19,0.0,0.0,28,0.00,,CLR,0.00,VWS V14.00,2013-03-09 22:21:00,
2013-03-09 17:26:00,56.4,24.6,30.23,NE,49,0.0,0.0,29,0.00,,CLR,0.00,VWS V14.00,2013-03-09 22:26:00,
2013-03-09 17:31:00,56.0,23.4,30.23,NE,48,0.0,0.0,28,0.00,,CLR,0.00,VWS V14.00,2013-03-09 22:31:00,
2013-03-09 17:36:00,55.7,24.0,30.23,NE,48,0.0,0.0,29,0.00,,CLR,0.00,VWS V14.00,2013-03-09 22:36:00,
2013-03-09 17:41:00,55.4,23.7,30.23,NE,48,0.0,0.0,29,0.00,,CLR,0.00,VWS V14.00,2013-03-09 22:41:00,
2013-03-09 17:46:00,55.0,24.2,30.24,NE,48,0.0,0.0,30,0.00,,CLR,0.00,VWS V14.00,2013-03-09 22:46:00,
2013-03-09 17:51:00,54.6,23.8,30.24,NE,48,0.0,0.0,30,0.00,,CLR,0.00,VWS V14.00,2013-03-09 22:51:00,
2013-03-09 17:56:00,54.0,24.1,30.24,NE,48,0.0,0.0,31,0.00,,CLR,0.00,VWS V14.00,2013-03-09 22:56:00,
2013-03-09 18:01:00,53.3,24.2,30.24,NE,48,0.0,0.0,32,0.00,,CLR,0.00,VWS V14.00,2013-03-09 23:01:00,
2013-03-09 18:06:00,52.7,24.4,30.24,NE,48,0.0,0.0,33,0.00,,CLR,0.00,VWS V14.00,2013-03-09 23:06:00,
2013-03-09 18:11:00,52.1,24.6,30.24,NE,48,0.0,0.0,34,0.00,,CLR,0.00,VWS V14.00,2013-03-09 23:11:00,
2013-03-09 18:16:00,51.4,24.7,30.25,NE,48,0.0,0.0,35,0.00,,CLR,0.00,VWS V14.00,2013-03-09 23:16:00,
2013-03-09 18:21:00,50.6,24.6,30.25,NE,48,0.0,0.0,36,0.00,,CLR,0.00,VWS V14.00,2013-03-09 23:21:00,
2013-03-09 18:26:00,49.9,25.3,30.25,NE,48,0.0,0.0,38,0.00,,CLR,0.00,VWS V14.00,2013-03-09 23:26:00,
2013-03-09 18:31:00,49.3,24.8,30.25,NE,48,0.0,0.0,38,0.00,,CLR,0.00,VWS V14.00,2013-03-09 23:31:00,
2013-03-09 18:36:00,48.7,24.9,30.25,NE,48,0.0,0.0,39,0.00,,CLR,0.00,VWS V14.00,2013-03-09 23:36:00,
2013-03-09 18:41:00,48.1,24.9,30.25,NE,48,0.0,0.0,40,0.00,,CLR,0.00,VWS V14.00,2013-03-09 23:41:00,
2013-03-09 18:46:00,47.6,25.1,30.25,NE,48,0.0,0.0,41,0.00,,CLR,0.00,VWS V14.00,2013-03-09 23:46:00,
2013-03-09 18:51:00,47.1,24.6,30.25,NE,48,0.0,0.0,41,0.00,,CLR,0.00,VWS V14.00,2013-03-09 23:51:00,
2013-03-09 18:56:00,46.6,24.8,30.25,NE,48,0.0,0.0,42,0.00,,CLR,0.00,VWS V14.00,2013-03-09 23:56:00,
2013-03-09 19:01:00,46.1,24.3,30.25,NE,48,0.0,0.0,42,0.00,,CLR,0.00,VWS V14.00,2013-03-10 00:01:00,
2013-03-09 19:06:00,45.7,23.9,30.25,NE,48,0.0,0.0,42,0.00,,CLR,0.00,VWS V14.00,2013-03-10 00:06:00,
2013-03-09 19:11:00,45.4,24.2,30.25,NE,48,0.0,0.0,43,0.00,,CLR,0.00,VWS V14.00,2013-03-10 00:11:00,
2013-03-09 19:16:00,45.1,24.0,30.25,NE,48,0.0,0.0,43,0.00,,CLR,0.00,VWS V14.00,2013-03-10 00:16:00,
2013-03-09 19:21:00,44.8,24.2,30.25,NE,48,0.0,0.0,44,0.00,,CLR,0.00,VWS V14.00,2013-03-10 00:21:00,
2013-03-09 19:26:00,44.4,23.9,30.25,NE,48,0.0,0.0,44,0.00,,CLR,0.00,VWS V14.00,2013-03-10 00:26:00,
2013-03-09 19:31:00,44.2,23.7,30.26,NE,48,0.0,0.0,44,0.00,,CLR,0.00,VWS V14.00,2013-03-10 00:31:00,
2013-03-09 19:36:00,43.8,23.3,30.26,NE,48,0.0,0.0,44,0.00,,CLR,0.00,VWS V14.00,2013-03-10 00:36:00,
2013-03-09 19:41:00,43.5,23.0,30.26,NE,48,0.0,0.0,44,0.00,,CLR,0.00,VWS V14.00,2013-03-10 00:41:00,
2013-03-09 19:46:00,43.3,23.4,30.26,NE,48,0.0,0.0,45,0.00,,CLR,0.00,VWS V14.00,2013-03-10 00:46:00,
2013-03-09 19:51:00,43.2,23.8,30.26,NE,48,0.0,0.0,46,0.00,,CLR,0.00,VWS V14.00,2013-03-10 00:51:00,
2013-03-09 19:56:00,43.1,23.7,30.26,NE,48,0.0,0.0,46,0.00,,CLR,0.00,VWS V14.00,2013-03-10 00:56:00,
2013-03-09 20:06:00,43.0,24.2,30.26,North,0,0.0,0.0,47,0.00,,CLR,0.00,VWS V14.00,2013-03-10 01:06:00,
2013-03-09 20:11:00,42.9,24.1,30.26,NE,48,0.0,0.0,47,0.00,,CLR,0.00,VWS V14.00,2013-03-10 01:11:00,
2013-03-09 20:16:00,42.6,24.3,30.26,NE,48,0.0,0.0,48,0.00,,CLR,0.00,VWS V14.00,2013-03-10 01:16:00,
2013-03-09 20:21:00,42.4,23.6,30.26,NE,48,0.0,0.0,47,0.00,,CLR,0.00,VWS V14.00,2013-03-10 01:21:00,
2013-03-09 20:26:00,42.2,22.9,30.26,NE,48,0.0,0.0,46,0.00,,CLR,0.00,VWS V14.00,2013-03-10 01:26:00,
2013-03-09 20:31:00,42.0,23.2,30.26,NE,48,0.0,0.0,47,0.00,,CLR,0.00,VWS V14.00,2013-03-10 01:31:00,
2013-03-09 20:36:00,41.7,23.0,30.26,NE,48,0.0,0.0,47,0.00,,CLR,0.00,VWS V14.00,2013-03-10 01:36:00,
2013-03-09 20:41:00,41.5,22.8,30.26,NE,48,0.0,0.0,47,0.00,,CLR,0.00,VWS V14.00,2013-03-10 01:41:00,
2013-03-09 20:46:00,41.3,22.6,30.26,NE,48,0.0,0.0,47,0.00,,CLR,0.00,VWS V14.00,2013-03-10 01:46:00,
2013-03-09 20:51:00,41.1,22.4,30.26,NE,48,0.0,0.0,47,0.00,,CLR,0.00,VWS V14.00,2013-03-10 01:51:00,
2013-03-09 20:56:00,41.0,23.3,30.26,NE,48,0.0,0.0,49,0.00,,CLR,0.00,VWS V14.00,2013-03-10 01:56:00,
2013-03-09 21:01:00,40.9,21.7,30.27,NE,48,0.0,0.0,46,0.00,,CLR,0.00,VWS V14.00,2013-03-10 02:01:00,
2013-03-09 21:06:00,41.0,21.8,30.27,NE,48,0.0,0.0,46,0.00,,CLR,0.00,VWS V14.00,2013-03-10 02:06:00,
2013-03-09 21:11:00,41.0,21.3,30.27,NE,48,0.0,0.0,45,0.00,,CLR,0.00,VWS V14.00,2013-03-10 02:11:00,
2013-03-09 21:16:00,40.9,21.2,30.27,NE,48,0.0,0.0,45,0.00,,CLR,0.00,VWS V14.00,2013-03-10 02:16:00,
2013-03-09 21:21:00,40.8,21.1,30.27,NE,48,0.0,0.0,45,0.00,,CLR,0.00,VWS V14.00,2013-03-10 02:21:00,
2013-03-09 21:26:00,40.7,21.5,30.27,NE,48,0.0,0.0,46,0.00,,CLR,0.00,VWS V14.00,2013-03-10 02:26:00,
2013-03-09 21:31:00,40.4,21.3,30.28,NE,48,0.0,0.0,46,0.00,,CLR,0.00,VWS V14.00,2013-03-10 02:31:00,
2013-03-09 21:36:00,40.1,22.0,30.28,NE,48,0.0,0.0,48,0.00,,CLR,0.00,VWS V14.00,2013-03-10 02:36:00,
2013-03-09 21:41:00,39.9,22.3,30.28,NE,48,0.0,0.0,49,0.00,,CLR,0.00,VWS V14.00,2013-03-10 02:41:00,
2013-03-09 21:46:00,39.6,22.0,30.28,NE,48,0.0,0.0,49,0.00,,CLR,0.00,VWS V14.00,2013-03-10 02:46:00,
2013-03-09 21:51:00,39.4,21.4,30.28,NE,48,0.0,0.0,48,0.00,,CLR,0.00,VWS V14.00,2013-03-10 02:51:00,
2013-03-09 21:56:00,39.2,21.2,30.28,NE,48,0.0,0.0,48,0.00,,CLR,0.00,VWS V14.00,2013-03-10 02:56:00,
2013-03-09 22:01:00,39.1,20.6,30.29,NE,48,0.0,0.0,47,0.00,,CLR,0.00,VWS V14.00,2013-03-10 03:01:00,
2013-03-09 22:06:00,39.0,21.5,30.29,NE,48,0.0,0.0,49,0.00,,CLR,0.00,VWS V14.00,2013-03-10 03:06:00,
2013-03-09 22:11:00,38.9,20.9,30.29,NE,48,0.0,0.0,48,0.00,,CLR,0.00,VWS V14.00,2013-03-10 03:11:00,
2013-03-09 22:16:00,38.8,20.3,30.28,NE,48,0.0,0.0,47,0.00,,CLR,0.00,VWS V14.00,2013-03-10 03:16:00,
2013-03-09 22:21:00,38.7,20.2,30.28,NE,48,0.0,0.0,47,0.00,,CLR,0.00,VWS V14.00,2013-03-10 03:21:00,
2013-03-09 22:26:00,38.7,20.2,30.28,NE,48,0.0,0.0,47,0.00,,CLR,0.00,VWS V14.00,2013-03-10 03:26:00,
2013-03-09 22:31:00,38.6,20.1,30.28,NE,48,0.0,0.0,47,0.00,,CLR,0.00,VWS V14.00,2013-03-10 03:31:00,
2013-03-09 22:36:00,38.6,19.6,30.28,NE,48,0.0,0.0,46,0.00,,CLR,0.00,VWS V14.00,2013-03-10 03:36:00,
2013-03-09 22:41:00,38.6,19.1,30.28,NE,48,0.0,0.0,45,0.00,,CLR,0.00,VWS V14.00,2013-03-10 03:41:00,
2013-03-09 22:46:00,38.7,19.2,30.28,NE,48,0.0,0.0,45,0.00,,CLR,0.00,VWS V14.00,2013-03-10 03:46:00,
2013-03-09 22:51:00,38.7,19.2,30.28,NE,48,0.0,0.0,45,0.00,,CLR,0.00,VWS V14.00,2013-03-10 03:51:00,
2013-03-09 22:56:00,38.6,19.1,30.28,NE,48,0.0,0.0,45,0.00,,CLR,0.00,VWS V14.00,2013-03-10 03:56:00,
2013-03-09 23:01:00,38.4,18.9,30.29,NE,48,0.0,0.0,45,0.00,,CLR,0.00,VWS V14.00,2013-03-10 04:01:00,
2013-03-09 23:06:00,38.4,18.9,30.29,NE,48,0.0,0.0,45,0.00,,CLR,0.00,VWS V14.00,2013-03-10 04:06:00,
2013-03-09 23:11:00,38.3,18.8,30.29,NE,48,0.0,0.0,45,0.00,,CLR,0.00,VWS V14.00,2013-03-10 04:11:00,
2013-03-09 23:16:00,38.2,18.8,30.29,NE,48,0.0,0.0,45,0.00,,CLR,0.00,VWS V14.00,2013-03-10 04:16:00,
2013-03-09 23:21:00,38.0,19.1,30.29,NE,48,0.0,0.0,46,0.00,,CLR,0.00,VWS V14.00,2013-03-10 04:21:00,
2013-03-09 23:26:00,37.8,19.9,30.29,NE,48,0.0,0.0,48,0.00,,CLR,0.00,VWS V14.00,2013-03-10 04:26:00,
2013-03-09 23:31:00,37.6,19.7,30.29,NE,48,0.0,0.0,48,0.00,,CLR,0.00,VWS V14.00,2013-03-10 04:31:00,
2013-03-09 23:36:00,37.5,20.1,30.29,NE,48,0.0,0.0,49,0.00,,CLR,0.00,VWS V14.00,2013-03-10 04:36:00,
2013-03-09 23:41:00,37.4,19.0,30.29,NE,48,0.0,0.0,47,0.00,,CLR,0.00,VWS V14.00,2013-03-10 04:41:00,
2013-03-09 23:46:00,37.4,19.5,30.30,NE,48,0.0,0.0,48,0.00,,CLR,0.00,VWS V14.00,2013-03-10 04:46:00,
2013-03-09 23:51:00,37.4,20.0,30.30,NE,48,0.0,0.0,49,0.00,,CLR,0.00,VWS V14.00,2013-03-10 04:51:00,
2013-03-09 23:56:00,37.2,20.8,30.30,NE,48,0.0,0.0,51,0.00,,CLR,0.00,VWS V14.00,2013-03-10 04:56:00,